Flag for Poland Weather past 2 weeks in Lublin, Poland

Now
54 °F

Overcast.


Feels Like: 54 °F
Forecast: 46 / 59 °F
Wind: 2 mph from Southeast

Location: Lublin Radawiec

Current Time: Oct 1, 2014 at 8:08:19 PM

Latest Report: Oct 1, 2014 at 7:00 PM


Visibility: 11 mi

Pressure: 30.36 "Hg

Humidity: 85%

Dew point: 49 °F

Location of LublinLocation

Historic Weather in Lublin — Graph

°F

Lublin temperature yesterday

Maximum temperature yesterday: 62 °F (at 1:00 PM)
Minimum temperature yesterday: 48 °F (at 6:00 AM)
Average temperature yesterday: 55 °F

Past Weeks' High & Low Weather Summary

 TemperatureHumidityPressure
High72 °F (Sep 18, 3:00 PM)100% (Sep 27, 5:00 AM)30.40 "Hg (Sep 27, 5:00 AM)
Low36 °F (Sep 24, 6:00 AM)42% (Sep 18, 3:00 PM)29.65 "Hg (Sep 22, 8:00 AM)
Average53 °F84%30.09 "Hg
* Reported Sep 16 6:00 PM — Oct 1 6:00 PM, Lublin, Weather by CustomWeather, © 2014

Note: Actual official high and low records may vary slightly from our data, if they occured in-between our weather recording intervals... More about our weather records

Advertising

Lublin weather history for previous 24 hours

 ConditionsComfort  
Time TempWeatherWind HumidityBarometerVisibility
6:00 PM
Oct 1
55 °FOvercast.2 mph83%30.35 "Hg14 mi
5:00 PM56 °FOvercast.2 mph82%30.34 "Hg14 mi
4:00 PM57 °FOvercast.3 mph77%30.34 "Hg19 mi
3:00 PM59 °FOvercast.3 mph76%30.34 "Hg14 mi
2:00 PM59 °FOvercast.3 mph77%30.34 "Hg14 mi
1:00 PM58 °FPartly sunny.3 mph83%30.34 "Hg16 mi
12:00 PM56 °FLow clouds.2 mph85%30.36 "Hg9 mi
11:00 AM53 °FFog.3 mph91%30.36 "Hg5 mi
10:00 AM53 °FFog.2 mph94%30.35 "Hg2 mi
9:00 AM51 °FFog.2 mph98%30.34 "Hg1 mi
8:00 AM51 °FFog.2 mph99%30.33 "Hg1 mi
7:00 AM51 °FFog.2 mph98%30.32 "Hg1 mi
6:00 AM51 °FFog.1 mph97%30.32 "Hg1 mi
5:00 AM53 °FFog.1 mph96%30.31 "Hg2 mi
4:00 AM53 °FFog.1 mph96%30.31 "Hg2 mi
3:00 AM54 °FFog.1 mph95%30.30 "Hg2 mi
2:00 AM54 °FFog.1 mph95%30.30 "Hg2 mi
1:00 AM54 °FFog.1 mph95%30.29 "Hg2 mi
12:00 AM54 °FFog.1 mph95%30.29 "Hg2 mi
11:00 PM
Sep 30
55 °FFog.1 mph94%30.27 "Hg2 mi
10:00 PM56 °FFog.1 mph95%30.27 "Hg2 mi
9:00 PM57 °FFog.1 mph98%30.26 "Hg1 mi
8:00 PM57 °FFog.2 mph97%30.26 "Hg1 mi
Weather by CustomWeather, © 2014

See weather overviewHow to use our weather pages